Location: Le Rocchette
(44.3500°N, 7.8333°E)
Time: 18:07:28
(UTC+00:00)

STARLINK-80 - Pass Details

Date: 17 November 2019
Orbit: 492 x 497 km, 53.0° (Epoch: 07 December)

Event Time Altitude Azimuth Distance (km) Brightness Sun altitude
Exits shadow 05:32:14 14° 286° (WNW) 1,468 5.1 -9.9°
Maximum altitude 05:34:58 30° 343° (NNW) 923 4.5 -9.4°
Drops below altitude 10° 05:38:23 10° 46° (NE) 1,703 6.5 -8.8°
Sets 05:40:47 0° 57° (ENE) 2,588 7.7 -8.4°
